Location: McFarlands Corners
(41.4117°N, 81.3382°W)
Time: 05:39:19
(UTC+00:00)

A-11 Canister half - Pass Details

Date: 22 February 2026
Orbit: 1524 x 1683 km, 47.3° (Epoch: 14 March)

Event Time Altitude Azimuth Distance (km) Brightness Sun altitude
Rises 23:57:30 0° 280° (W) 4,702 13.3 -10.2°
Reaches altitude 10° 00:00:38 10° 284° (WNW) 3,707 12.3 -10.8°
Maximum altitude 00:09:52 62° 4° (N) 1,692 9.2 -12.5°
Enters shadow 00:17:18 17° 81° (E) 3,160 10.0 -13.9°
